Theta_e
314 312 310 310 310 312 315 317 317 317 318 318 318 318 317 317 316 317 317 320 320 318 318 317 317 318 319 319 318 316 315 315 315 316 316 316 316 315 317 318 319 320 319
312 310 309 308 308 311 315 316 316 316 316 317 316 316 316 316 316 315 315 313 312 311 311 313 312 312 312 314 315 315 314 314 314 313 314 314 314 314 314 316 317 317 317
311 309 307 306 306 310 314 315 314 313 312 312 313 314 315 315 316 315 315 313 312 310 309 308 308 308 309 310 311 311 312 313 313 312 312 312 313 313 313 313 314 316 316
310 308 305 304 304 307 312 313 313 312 311 311 311 313 314 314 315 316 315 313 311 310 308 307 305 303 301 307 309 310 310 310 310 310 310 311 312 312 313 313 313 312 312
307 306 304 301 301 303 306 307 308 309 305 303 301 304 310 313 314 312 312 310 310 309 308 306 303 302 302 302 305 308 309 309 309 309 310 310 310 311 311 312 312 313 312
305 304 302 300 300 300 301 301 302 301 301 301 299 300 302 308 313 313 311 310 310 309 308 308 307 306 304 302 302 301 303 308 308 309 309 310 310 310 310 311 311 312 312
305 303 301 299 299 299 299 300 300 301 301 301 302 303 303 306 308 311 312 312 311 310 309 308 305 304 304 300 300 299 299 305 307 308 309 309 309 310 310 311 311 311 312
303 301 299 298 298 298 298 298 299 299 300 300 303 303 305 304 301 301 303 305 306 304 302 301 302 302 302 302 301 301 300 300 303 305 307 308 309 309 310 311 311 311 311
302 300 298 298 298 298 298 298 299 301 301 300 300 304 306 305 303 300 301 300 301 302 302 301 301 300 300 300 300 300 299 299 303 306 307 308 308 309 310 310 311 312 312
301 300 300 300 299 299 299 299 300 300 302 302 301 300 301 302 306 307 302 302 301 301 301 300 300 300 300 299 299 298 298 298 302 303 305 306 308 308 309 310 311 311 312
301 302 302 302 302 301 301 301 301 302 302 304 303 302 302 301 302 304 304 303 301 301 300 299 299 299 299 299 299 299 297 295 297 299 301 303 305 306 307 308 309 310 311
303 304 304 303 303 303 303 302 302 302 303 302 302 302 303 303 302 302 302 302 301 300 299 299 298 298 296 298 297 297 295 291 296 297 299 301 303 304 304 305 306 307 309
305 305 304 304 304 304 303 303 303 303 303 302 302 301 301 301 300 300 300 300 299 298 298 297 298 296 296 295 295 293 291 294 295 295 297 298 300 300 300 301 301 302 304
307 305 305 305 304 304 303 302 302 302 302 302 301 300 300 299 299 299 298 297 297 296 295 296 295 296 295 293 292 292 293 293 294 294 294 295 296 296 297 297 298 299 300
307 306 305 305 304 303 302 302 301 300 300 299 298 298 297 297 296 295 294 294 294 295 295 294 294 294 292 292 292 292 292 292 293 293 293 294 294 294 295 296 297 297 298
305 305 304 303 303 301 299 297 296 295 296 296 295 294 294 293 293 293 293 292 292 293 294 292 292 291 292 292 291 291 292 291 292 292 293 293 293 293 294 295 295 296 296
305 304 303 301 299 296 294 293 294 293 293 293 292 293 292 292 292 292 292 291 291 291 292 291 291 292 292 291 291 291 291 291 291 291 291 291 292 292 293 292 293 294 294
303 302 299 297 294 292 292 292 291 291 292 292 292 292 291 291 291 291 291 291 291 291 291 292 292 291 291 291 290 289 290 290 290 290 290 290 291 290 290 291 291 292 292
300 297 294 293 292 291 291 291 291 291 291 291 291 291 290 290 290 290 291 291 291 291 291 291 291 291 290 290 290 290 290 290 289 289 289 289 289 290 290 291 291 291 291
295 292 292 291 291 290 291 290 291 291 291 290 290 289 289 289 290 290 290 291 290 291 291 290 289 289 290 290 289 289 289 289 289 289 289 290 290 290 289 290 290 290 290
292 291 291 290 290 292 292 292 291 291 290 290 289 289 289 288 288 288 289 289 290 290 289 289 289 290 290 290 289 289 288 288 289 289 289 289 288 288 288 289 289 289 290
291 290 290 289 291 291 289 288 289 289 289 289 289 289 289 289 289 288 288 289 289 289 289 289 289 289 289 289 288 289 289 289 289 288 288 287 287 287 287 288 288 287 288
290 289 289 289 289 290 288 288 288 289 289 289 289 289 289 289 288 288 289 289 289 289 289 289 288 288 288 288 288 289 288 287 288 287 287 287 286 287 287 287 287 287 288
289 289 288 288 288 287 287 287 287 289 289 289 289 289 288 288 288 288 289 289 289 289 288 287 286 287 287 286 286 286 286 286 287 286 286 287 286 286 286 286 287 287 287
288 288 288 288 288 287 287 287 289 290 290 289 289 289 288 288 288 288 289 289 289 288 286 286 287 287 286 285 285 285 285 285 286 285 285 285 286 286 286 286 287 287 287
288 287 287 287 287 287 287 287 288 290 289 289 289 288 288 287 288 288 289 288 288 286 286 286 286 285 284 284 284 285 285 285 285 285 285 285 285 286 286 286 286 286 286
Wind_Speed
8 7 6 5 4 5 5 4 6 5 4 4 3 4 4 4 4 4 3 3 4 7 9 9 9 9 9 8 8 9 10 10 10 9 9 9 11 11 10 9 7 6 6
8 7 6 6 5 5 5 5 5 4 4 3 2 3 3 2 4 4 4 4 3 3 5 8 9 9 8 7 7 7 8 8 9 9 9 8 9 9 9 8 7 8 8
8 7 7 6 5 5 6 5 4 4 3 3 2 2 4 3 2 3 3 4 3 3 3 4 5 6 7 8 7 7 8 8 9 9 9 9 9 9 8 7 8 8 8
9 8 7 6 7 6 5 5 4 3 3 3 1 2 2 2 2 2 2 2 2 3 5 5 5 6 6 7 8 7 8 9 9 9 9 10 10 10 9 9 9 8 9
9 8 8 7 7 6 5 5 4 3 2 2 1 2 2 3 2 1 1 1 2 2 2 5 5 7 8 8 7 7 8 8 9 10 10 11 11 11 12 12 11 11 11
10 9 9 8 7 6 5 5 5 5 2 1 1 2 3 2 2 2 1 1 1 1 3 4 5 6 9 10 9 10 11 11 11 12 12 12 13 13 13 13 13 13 13
12 11 10 9 8 7 6 6 6 4 4 4 4 4 5 2 2 2 1 1 2 2 3 4 5 7 8 12 13 14 14 13 14 15 16 16 16 16 16 16 17 16 16
12 11 11 11 9 8 8 6 5 3 5 7 0 3 4 4 3 2 2 2 2 2 4 6 8 9 10 11 13 16 14 14 14 15 16 17 18 18 18 18 19 19 19
12 12 12 11 10 9 9 7 6 3 4 7 7 2 2 2 0 2 2 2 0 5 8 9 7 10 9 9 10 10 12 12 13 14 16 17 18 20 20 21 21 22 22
13 12 12 11 10 9 9 7 6 6 6 5 4 8 8 4 2 1 3 3 2 8 8 8 9 9 8 8 10 9 8 12 16 19 19 19 20 20 21 22 23 24 24
13 12 11 11 10 9 10 7 6 7 8 5 4 3 5 5 5 2 2 5 8 6 6 12 10 9 7 8 5 7 14 21 24 22 22 22 22 23 24 24 25 26 27
13 12 11 10 10 9 11 7 7 8 8 6 5 6 4 3 3 3 3 7 10 8 13 7 8 6 10 8 11 15 22 28 22 23 22 23 23 23 24 25 26 27 28
12 13 12 11 10 10 11 7 7 7 6 6 5 4 4 3 2 2 4 7 6 10 6 9 6 12 8 11 13 21 25 22 21 22 23 23 23 23 24 25 26 27 28
13 15 13 11 10 10 10 7 10 6 5 5 4 4 3 2 2 2 4 7 6 8 15 10 15 7 11 17 20 21 21 21 22 24 24 24 24 24 25 25 26 27 28
15 15 14 13 10 10 10 8 10 5 4 4 4 4 3 2 2 2 3 5 7 5 9 10 11 16 21 22 22 24 24 23 24 24 23 23 24 26 26 26 25 25 26
17 17 15 14 12 11 9 10 8 6 4 4 4 3 3 2 3 3 4 6 7 11 7 15 20 22 23 25 26 26 25 26 23 23 22 24 25 26 26 27 28 28 28
17 17 15 15 13 12 9 10 6 6 4 3 4 4 4 4 5 5 6 7 9 11 16 21 21 21 22 24 24 25 25 25 24 23 28 28 27 27 26 28 26 26 27
15 16 17 15 14 12 10 7 5 5 5 4 4 4 5 6 7 7 9 11 13 14 17 22 21 22 22 23 24 24 24 24 25 27 29 31 28 29 27 25 26 27 28
18 17 16 16 14 11 8 6 5 5 4 4 4 5 7 8 9 10 11 13 14 15 17 20 23 22 24 23 23 23 23 24 26 27 27 27 28 29 28 27 26 28 26
20 17 16 14 12 10 7 6 5 4 4 4 6 7 7 8 10 12 12 14 14 16 17 19 20 23 23 24 23 24 25 25 27 27 27 24 24 25 26 28 31 27 24
18 17 15 13 11 8 6 4 4 4 4 6 7 7 7 11 11 10 11 12 13 15 16 18 20 23 23 23 23 25 26 27 28 26 21 21 28 30 30 27 27 25 23
18 16 13 12 9 8 5 5 5 5 6 6 7 8 9 10 11 11 11 12 14 17 19 21 23 23 25 25 26 25 27 23 14 25 24 29 26 26 27 24 24 27 26
17 13 12 11 9 6 4 5 7 5 5 7 8 10 11 11 12 12 13 15 15 16 17 20 23 23 27 28 29 28 25 26 27 28 25 25 25 25 26 25 24 28 30
14 12 11 9 7 5 4 5 7 5 6 8 9 9 10 11 12 13 17 17 17 18 19 21 22 24 25 29 29 29 28 27 27 25 22 21 26 25 25 25 25 23 22
13 11 10 8 5 3 3 5 6 6 8 10 10 10 10 12 13 16 17 19 21 22 21 19 22 23 27 26 24 23 21 20 21 24 22 22 23 26 26 24 17 18 26
13 10 8 6 3 1 4 6 7 7 9 11 11 11 10 13 16 17 19 21 23 23 23 24 23 22 21 20 20 18 19 18 20 19 16 18 21 20 13 17 18 23 24
Wind_Direction
158 150 143 138 137 132 137 139 129 126 117 111 106 102 83 56 63 96 93 106 85 69 58 55 52 43 35 31 19 16 22 20 16 14 11 4 2 359 349 346 349 353 348
158 151 146 138 131 130 134 139 132 129 119 117 111 108 98 79 82 95 103 75 77 71 56 48 47 42 34 25 17 10 6 6 5 5 4 359 356 356 358 348 342 338 333
157 152 146 138 135 132 135 133 122 115 104 100 112 125 107 107 113 104 99 95 48 18 20 19 19 18 20 13 4 360 355 351 346 346 347 345 344 340 339 335 326 320 322
157 150 144 143 145 137 146 144 136 127 115 112 134 160 139 130 138 141 93 87 56 26 358 354 357 355 357 2 355 348 344 338 332 331 330 328 326 324 320 315 311 312 311
153 147 142 145 142 138 139 142 130 142 139 133 208 216 167 186 164 153 132 71 37 28 1 343 346 345 344 343 342 338 333 326 321 314 315 314 311 309 307 306 301 297 295
152 144 142 144 138 133 135 137 133 114 99 4 161 159 161 186 192 187 199 251 318 345 346 340 337 319 321 322 318 315 311 311 310 308 306 303 299 296 293 291 291 290 288
157 150 143 143 138 134 140 141 127 128 75 37 151 122 100 103 151 192 211 244 282 303 321 327 327 323 315 314 311 309 310 311 307 304 301 300 299 297 294 290 288 286 284
155 149 146 143 139 130 123 125 155 165 77 48 5 167 146 140 85 84 101 98 96 69 350 327 319 315 314 312 308 313 310 307 312 310 304 297 295 294 294 291 287 285 283
155 151 146 142 139 131 124 114 112 117 116 63 48 18 162 107 234 160 137 104 91 340 329 324 328 320 319 319 326 327 322 329 337 328 318 309 300 293 289 287 286 283 279
153 150 145 139 136 130 118 110 102 111 95 108 75 58 68 60 21 177 178 293 313 324 330 335 326 326 329 331 321 327 340 334 333 324 315 308 303 299 294 289 284 282 281
151 149 143 138 133 130 116 114 113 102 95 92 88 107 73 73 59 353 317 329 326 322 316 329 329 328 334 333 339 320 320 325 322 317 312 307 302 297 292 289 286 284 282
151 149 144 140 132 129 117 130 117 100 97 97 91 81 78 57 37 17 312 327 313 311 317 317 324 327 332 329 325 313 313 318 320 318 314 309 304 300 296 291 288 286 283
153 150 144 136 129 130 123 130 114 92 99 101 89 89 79 72 50 10 314 320 305 313 318 325 319 324 327 328 318 308 315 319 317 317 313 310 306 302 298 295 291 287 284
153 153 143 138 134 130 122 136 105 102 96 96 93 85 75 57 41 343 319 321 315 296 309 309 316 322 328 325 320 319 316 312 308 311 309 307 305 301 298 295 292 289 287
152 151 145 137 133 132 126 126 102 110 101 96 88 76 67 52 22 339 315 301 300 307 313 312 315 311 314 318 317 320 316 312 308 310 308 305 303 301 297 295 295 294 291
147 145 137 135 134 128 133 114 108 107 107 85 71 56 40 15 353 351 328 304 286 282 283 300 299 302 308 312 315 317 315 316 313 310 310 308 306 302 298 296 294 292 290
142 144 134 135 130 125 120 105 115 104 88 69 43 33 28 11 357 341 319 301 292 288 285 295 302 306 306 307 309 311 312 314 312 309 310 306 302 302 299 298 294 294 293
144 138 137 131 129 123 113 112 106 93 73 54 32 18 14 360 348 330 317 311 304 302 300 303 309 312 310 311 307 305 308 308 307 307 306 302 302 303 302 299 299 295 294
136 138 134 127 128 116 114 108 88 72 62 43 18 10 3 352 341 331 325 316 311 310 308 307 311 315 311 308 307 310 311 311 309 308 308 305 304 302 301 299 302 297 295
139 133 132 129 120 113 109 85 76 64 45 24 14 10 358 348 337 331 323 317 313 314 317 316 311 309 312 314 312 315 317 316 314 313 310 307 308 304 302 300 301 299 293
137 134 132 124 113 104 85 82 62 50 28 16 6 353 343 338 335 327 321 316 317 315 310 308 304 311 311 317 319 318 309 309 311 310 315 309 308 300 299 302 301 300 296
132 133 127 119 109 94 85 56 52 31 14 359 344 340 337 337 327 317 313 307 306 310 311 314 312 310 312 315 314 310 308 311 311 307 311 304 309 306 305 303 303 302 300
132 128 124 114 106 98 75 34 19 8 348 339 340 337 331 325 330 327 319 314 310 308 305 306 304 307 310 312 309 308 308 306 302 308 311 303 309 305 306 306 304 303 302
128 127 118 118 115 93 52 12 352 340 336 332 329 325 321 321 321 323 321 315 312 310 310 306 301 301 303 307 307 304 304 302 299 303 309 301 309 303 307 307 306 304 303
131 125 124 118 109 90 20 355 350 332 328 324 321 318 313 317 323 321 316 313 312 309 309 301 296 297 302 307 309 312 311 312 305 308 313 300 308 307 308 302 305 309 311
129 128 127 130 112 43 352 344 344 329 323 321 319 314 313 320 322 319 316 313 308 311 312 312 308 308 310 312 311 310 312 307 306 308 320 311 305 313 311 310 317 309 310